Weather in Slavinsk

Russia / Kaliningrad Oblast     54°45′04″N   21°04′53″E
temp.,
°C
wind,
m/s
gust,
m/s
humid.,
%
clouds,
%
prec.,
mm/h
press.,
hPa
HPBL,
m
21 april, wed
wed2123:00+6wnw227012 0.0 101225
02:00+5wnw347468 0.0 101158
05:00+4wnw33745 0.0 101047
08:00+9wnw35615 0.0 1010244
11:00+13w454822 0.0 10091085
14:00+14w57445 0.0 10081464
17:00+13wnw585053 0.0 10071168
20:00+7w487756 0.0 1008289
22 april, thu
thu2223:00+5wsw3108476 0.0 1008352
02:00+5sw511687 0.0 1007754
05:00+3sw512775 0.0 1007698
08:00+5sw7127190 0.0 10071098
11:00+7wsw91469100 0.3 10071592
14:00+6wsw9146591 0.9 10081584
17:00+5w7116978 0.3 10081382
20:00+3wsw71293100 0.4 1009940
23 april, fri
fri2323:00+4w61086100 0.4 10101013
02:00+2w71297100 1.0 1010955
05:00+3wnw6118145 0.6 1011840
08:00+4wnw697293 0.8 10131220
11:00+6wnw795654 0.4 10131780
14:00+6nw785125 0.8 10151826
17:00+5nw795515 0.1 10161666
20:00+2wnw4107178 0.2 1017447
24 april, sat
sat2423:00+2wnw41175100 0.1 1016469
02:00+3wnw51078100 0.2 1016814
05:00+3wnw5108094 0.2 1017608
08:00+4nw6974100 0.5 10171138
11:00+6nw7960100 0.5 10181508
14:00+6nw81060100 1.3 10191704
17:00+5nw8106265 0.5 10191562
20:00+3nw71177100 0.7 1019936
25 april, sun
sun2523:00+3nw71276100 0.4 10191187
02:00+3nw71166100 0.4 10191186
05:00+2nw612676 0.1 1019786
08:00+4nw7125983 0.1 10181644
11:00+6nw91252100 0.1 10191872
14:00+5nw81159100 0.3 10191826
17:00+4nw71167100 0.2 10201519
20:00+3nw61064100 0.2 1019971